Weather History for Perry, IA

Change the Weather History Date:

Wednesday, October 31, 2012

  Actual Average Record
Temperature  
Mean Temperature 44 °F -  
Max Temperature 57 °F 56 °F 85 °F (1950)
Min Temperature 30 °F 36 °F 18 °F (1949)
Degree Days  
Heating Degree Days 22    
Moisture  
Dew Point 26 °F    
Average Humidity 58    
Maximum Humidity 90    
Minimum Humidity 22    
Precipitation  
Precipitation 0.00 in - - ()
Sea Level Pressure  
Sea Level Pressure 30.02 in    
Wind  
Wind Speed 5 mph (NW)    
Max Wind Speed 9 mph    
Max Gust Speed -    
Visibility 10 miles    
Events      
Averages and records for this station are not official NWS values.
T = Trace of Precipitation, MM = Missing Value Source: NWS Daily Summary

Daily Weather History Graph

Daily Weather History Graph

Search for Another Location

Airport:

Trip Planner

Search our weather history database for the weather conditions in past years. The results will help you decide how hot, cold, wet, or windy it might be!

Date:

Astronomy

Oct. 31, 2012 Rise Set
Actual Time 7:48 AM CDT 6:11 PM CDT
Civil Twilight 7:19 AM CDT 6:40 PM CDT
Nautical Twilight 6:46 AM CDT 7:13 PM CDT
Astronomical Twilight 6:14 AM CDT 7:45 PM CDT
Moon 7:21 PM CDT (10/31) 9:31 AM CDT (10/31)
Length of Visible Light 11h 20m
Length of Day
10h 23m
Full, 97% of the Moon is Illuminated
Oct 31
Full
Nov 6
Last Quarter
Nov 13
New
Nov 20
First Quarter
Nov 28
Full

Hourly Weather History & Observations

Time (CDT) Temp. Windchill Dew Point Humidity Pressure Visibility Wind Dir Wind Speed Gust Speed Precip Events Conditions
12:15 AM 41.5 °F 37.1 °F 31.3 °F 67% 30.04 in 10.0 mi NNW 6.9 mph - N/A   Mostly Cloudy
12:35 AM 41.9 °F 36.3 °F 31.6 °F 67% 30.04 in 10.0 mi North 9.2 mph - N/A   Overcast
12:55 AM 40.3 °F 36.3 °F 31.6 °F 71% 30.04 in 10.0 mi North 5.8 mph - N/A   Scattered Clouds
1:15 AM 39.7 °F 34.9 °F 31.6 °F 73% 30.04 in 10.0 mi NNW 6.9 mph - N/A   Mostly Cloudy
1:35 AM 39.0 °F 34.8 °F 31.6 °F 75% 30.04 in 10.0 mi NW 5.8 mph - N/A   Scattered Clouds
1:55 AM 37.9 °F 34.4 °F 30.9 °F 76% 30.04 in 10.0 mi NNW 4.6 mph - N/A   Clear
2:15 AM 35.8 °F 30.9 °F 30.4 °F 81% 30.04 in 10.0 mi NW 5.8 mph - N/A   Clear
2:55 AM 35.8 °F 30.9 °F 30.4 °F 81% 30.04 in 10.0 mi North 5.8 mph - N/A   Scattered Clouds
3:15 AM 33.8 °F 30.8 °F 29.5 °F 84% 30.03 in 10.0 mi NW 3.5 mph - N/A   Clear
3:35 AM 32.9 °F 28.5 °F 29.1 °F 86% 30.03 in 10.0 mi WNW 4.6 mph - N/A   Clear
3:55 AM 32.4 °F 26.9 °F 29.1 °F 88% 30.03 in 10.0 mi WNW 5.8 mph - N/A   Clear
4:15 AM 32.0 °F 26.4 °F 28.8 °F 88% 30.04 in 10.0 mi NW 5.8 mph - N/A   Clear
4:35 AM 32.4 °F 26.0 °F 29.3 °F 88% 30.04 in 10.0 mi NNW 6.9 mph - N/A   Clear
4:55 AM 32.9 °F 28.5 °F 29.3 °F 87% 30.04 in 10.0 mi NW 4.6 mph - N/A   Clear
5:15 AM 32.5 °F 26.2 °F 29.1 °F 87% 30.04 in 10.0 mi NW 6.9 mph - N/A   Clear
5:35 AM 32.2 °F 27.7 °F 28.8 °F 87% 30.04 in 10.0 mi NNW 4.6 mph - N/A   Clear
5:55 AM 32.0 °F 26.4 °F 28.8 °F 88% 30.05 in 10.0 mi NW 5.8 mph - N/A   Clear
6:15 AM 32.0 °F 26.4 °F 28.8 °F 88% 30.05 in 10.0 mi NW 5.8 mph - N/A   Clear
6:35 AM 32.0 °F 28.7 °F 28.4 °F 87% 30.05 in 7.0 mi NW 3.5 mph - N/A   Clear
7:15 AM 30.9 °F 25.2 °F 27.5 °F 87% 30.04 in 7.0 mi WNW 5.8 mph - N/A   Clear
7:35 AM 31.3 °F 26.6 °F 27.9 °F 87% 30.04 in 7.0 mi NW 4.6 mph - N/A   Clear
8:15 AM 30.2 °F 24.3 °F 27.5 °F 90% 30.04 in 7.0 mi WNW 5.8 mph - N/A   Clear
8:35 AM 32.0 °F 28.7 °F 29.3 °F 90% 30.05 in 7.0 mi WNW 3.5 mph - N/A   Clear
8:55 AM 33.4 °F 30.4 °F 30.4 °F 89% 30.05 in 5.0 mi WNW 3.5 mph - N/A   Clear
9:15 AM 35.6 °F 32.8 °F 30.0 °F 80% 30.05 in 10.0 mi NW 3.5 mph - N/A   Clear
9:35 AM 36.7 °F 32.9 °F 30.2 °F 77% 30.06 in 10.0 mi NW 4.6 mph - N/A   Clear
9:55 AM 39.2 °F 35.9 °F 30.4 °F 71% 30.06 in 10.0 mi NNW 4.6 mph - N/A   Clear
10:15 AM 40.1 °F 38.0 °F 30.2 °F 68% 30.07 in 10.0 mi NNW 3.5 mph - N/A   Clear
10:35 AM 41.7 °F 39.8 °F 29.3 °F 61% 30.07 in 10.0 mi NNW 3.5 mph - N/A   Clear
10:55 AM 43.3 °F - 26.6 °F 52% 30.06 in 10.0 mi Calm Calm - N/A   Clear
11:15 AM 43.7 °F 42.1 °F 23.2 °F 44% 30.06 in 10.0 mi NNW 3.5 mph - N/A   Clear
11:35 AM 46.4 °F - 18.7 °F 33% 30.06 in 10.0 mi Calm Calm - N/A   Clear
11:55 AM 48.0 °F - 17.4 °F 30% 30.06 in 10.0 mi North 3.5 mph - N/A   Clear
12:15 PM 49.1 °F - 14.9 °F 26% 30.05 in 10.0 mi NW 3.5 mph - N/A   Clear
12:35 PM 50.0 °F - 16.2 °F 26% 30.05 in 10.0 mi WNW 4.6 mph - N/A   Clear
12:55 PM 51.3 °F - 16.2 °F 25% 30.04 in 10.0 mi North 5.8 mph - N/A   Clear
1:15 PM 52.7 °F - 15.6 °F 23% 30.03 in 10.0 mi Calm Calm - N/A   Clear
1:35 PM 53.6 °F - 16.0 °F 23% 30.03 in 10.0 mi NNW 6.9 mph - N/A   Clear
1:55 PM 54.7 °F - 16.7 °F 22% 30.02 in 10.0 mi NW 4.6 mph - N/A   Clear
2:15 PM 55.2 °F - 16.9 °F 22% 30.00 in 10.0 mi NNW 5.8 mph - N/A   Clear
2:55 PM 56.1 °F - 19.0 °F 24% 29.99 in 10.0 mi NNW 3.5 mph - N/A   Clear
3:15 PM 56.5 °F - 19.2 °F 23% 29.98 in 10.0 mi Calm Calm - N/A   Clear
3:35 PM 57.2 °F - 19.8 °F 23% 29.98 in 10.0 mi NW 5.8 mph - N/A   Mostly Cloudy
3:55 PM 57.4 °F - 19.8 °F 23% 29.98 in 10.0 mi NNW 4.6 mph - N/A   Overcast
4:15 PM 56.7 °F - 21.6 °F 26% 29.98 in 10.0 mi NNW 6.9 mph - N/A   Mostly Cloudy
4:35 PM 57.4 °F - 20.5 °F 24% 29.98 in 10.0 mi NNW 4.6 mph - N/A   Scattered Clouds
4:55 PM 55.9 °F - 22.1 °F 27% 29.98 in 10.0 mi WNW 3.5 mph - N/A   Scattered Clouds
5:15 PM 53.8 °F - 23.5 °F 31% 29.98 in 10.0 mi NNW 3.5 mph - N/A   Clear
5:35 PM 53.4 °F - 25.0 °F 33% 29.99 in 7.0 mi North 3.5 mph - N/A   Clear
5:55 PM 53.6 °F - 24.3 °F 32% 29.99 in 10.0 mi Calm Calm - N/A   Clear
6:15 PM 52.2 °F - 23.9 °F 33% 29.98 in 10.0 mi Calm Calm - N/A   Clear
6:35 PM 51.3 °F - 23.2 °F 33% 29.99 in 10.0 mi Calm Calm - N/A   Clear
6:55 PM 51.4 °F - 22.5 °F 32% 29.99 in 10.0 mi Calm Calm - N/A   Clear
7:15 PM 50.9 °F - 23.0 °F 34% 29.98 in 10.0 mi Calm Calm - N/A   Clear
7:35 PM 50.0 °F - 23.4 °F 35% 29.99 in 10.0 mi Calm Calm - N/A   Clear
8:15 PM 43.5 °F 40.9 °F 27.7 °F 54% 29.98 in 10.0 mi SW 4.6 mph - N/A   Clear
8:35 PM 40.8 °F 37.8 °F 29.5 °F 64% 29.98 in 10.0 mi SSW 4.6 mph - N/A   Clear
9:15 PM 40.1 °F 34.7 °F 30.2 °F 68% 29.98 in 10.0 mi SW 8.1 mph - N/A   Clear
9:35 PM 40.3 °F 34.9 °F 30.7 °F 69% 29.98 in 10.0 mi SW 8.1 mph - N/A   Clear
9:55 PM 38.1 °F 32.9 °F 30.2 °F 73% 29.98 in 10.0 mi SW 6.9 mph - N/A   Clear
10:15 PM 38.1 °F 33.7 °F 30.0 °F 73% 29.98 in 10.0 mi SW 5.8 mph - N/A   Clear
10:35 PM 37.6 °F 34.0 °F 30.0 °F 74% 29.98 in 10.0 mi SW 4.6 mph - N/A   Clear
10:55 PM 40.3 °F - 30.2 °F 67% 29.98 in 10.0 mi Calm Calm - N/A   Clear
11:15 PM 37.8 °F 35.3 °F 30.4 °F 75% 29.97 in 10.0 mi SW 3.5 mph - N/A   Clear
11:35 PM 38.5 °F 36.1 °F 30.4 °F 73% 29.98 in 10.0 mi WSW 3.5 mph - N/A   Clear